Manhattan, KS

6:49 AM CDT on October 18, 2019 (GMT -0500)
Manhattan Regional

Weather History for KMHK - September, 2019

Change the Weather History Date:

Thursday, September 19, 2019

  Actual Average Record
Temperature  
Mean Temperature 80 °F 66 °F  
Max Temperature 92 °F 80 °F 97 °F (2017)
Min Temperature 68 °F 53 °F 36 °F (2003)
Degree Days  
Heating Degree Days 0 3  
Month to date heating degree days 0 21  
Since 1 July heating degree days 0 24  
Cooling Degree Days 15 4  
Month to date cooling degree days 267 121  
Year to date cooling degree days 1494 1304  
Growing Degree Days 30 (Base 50)    
Moisture  
Dew Point 69 °F    
Average Humidity 71    
Maximum Humidity 93    
Minimum Humidity 49    
Precipitation  
Precipitation 0.00 in 0.10 in 0.81 in (1996)
Month to date precipitation 0.97 2.20  
Year to date precipitation 36.67 26.74  
Sea Level Pressure  
Sea Level Pressure 29.93 in    
Wind  
Wind Speed 4 mph (SSE)    
Max Wind Speed 20 mph    
Max Gust Speed 26 mph    
Visibility 10 miles    
Events Thunderstorm    
T = Trace of Precipitation, MM = Missing Value Source: NWS Daily Summary

Daily Weather History Graph

Daily Weather History Graph

Search for Another Location

Airport or City:

Astronomy

Sep. 19, 2019 Rise Set
Actual Time 7:11 AM CDT 7:28 PM CDT
Civil Twilight 6:44 AM CDT 7:55 PM CDT
Nautical Twilight 6:13 AM CDT 8:26 PM CDT
Astronomical Twilight 5:41 AM CDT 8:58 PM CDT
Moon 10:41 PM CDT (9/19) 12:13 PM CDT (9/19)
Length of Visible Light 13h 10m
Length of Day
12h 17m
Waning Gibbous, 74% of the Moon is Illuminated
Sep 19
Waning Gibbous
Sep 21
Last Quarter
Sep 28
New
Oct 5
First Quarter
Oct 13
Full

Hourly Weather History & Observations

Time (CDT) Temp. Heat Index Dew Point Humidity Pressure Visibility Wind Dir Wind Speed Gust Speed Precip Events Conditions
12:52 AM 77.0 °F - 66.9 °F 71% 29.91 in 10.0 mi South 5.8 mph - N/A   Clear
1:52 AM 75.0 °F - 66.9 °F 76% 29.91 in 10.0 mi SW 5.8 mph - N/A   Clear
2:52 AM 73.9 °F - 66.9 °F 79% 29.91 in 10.0 mi Calm Calm - N/A   Clear
3:52 AM 71.1 °F - 66.9 °F 87% 29.91 in 10.0 mi Calm Calm - N/A   Clear
4:52 AM 71.1 °F - 66.9 °F 87% 29.92 in 10.0 mi SW 3.5 mph - N/A   Clear
5:52 AM 70.0 °F - 66.9 °F 90% 29.92 in 10.0 mi WSW 3.5 mph - N/A   Clear
6:52 AM 68.0 °F - 66.0 °F 93% 29.94 in 10.0 mi Calm Calm - N/A   Clear
7:52 AM 70.0 °F - 66.9 °F 90% 29.95 in 10.0 mi Calm Calm - N/A   Clear
8:52 AM 77.0 °F - 69.1 °F 76% 29.96 in 10.0 mi Calm Calm - N/A   Clear
9:52 AM 82.9 °F 87.5 °F 71.1 °F 67% 29.95 in 10.0 mi SSW 8.1 mph - N/A   Clear
10:52 AM 86.0 °F 91.5 °F 71.1 °F 61% 29.97 in 10.0 mi Calm Calm - N/A   Clear
11:52 AM 88.0 °F 94.7 °F 72.0 °F 59% 29.97 in 10.0 mi ESE 5.8 mph - N/A   Clear
12:52 PM 87.1 °F 93.6 °F 72.0 °F 61% 29.96 in 10.0 mi ENE 6.9 mph - N/A   Scattered Clouds
1:35 PM 87.1 °F 93.6 °F 72.0 °F 61% 29.97 in 10.0 mi East 6.9 mph - N/A Thunderstorm Scattered Clouds
1:50 PM 87.8 °F 93.8 °F 71.6 °F 58% 29.97 in 10.0 mi East 6.9 mph - N/A   Scattered Clouds
1:52 PM 87.1 °F 93.6 °F 72.0 °F 61% 29.94 in 10.0 mi NE 8.1 mph - N/A   Scattered Clouds
2:52 PM 91.9 °F 97.4 °F 70.0 °F 48% 29.91 in 10.0 mi SE 13.8 mph - N/A   Scattered Clouds
3:02 PM 91.9 °F 97.4 °F 70.0 °F 48% 29.94 in 10.0 mi South 11.5 mph - N/A   Partly Cloudy
3:52 PM 91.9 °F 98.4 °F 71.1 °F 50% 29.89 in 10.0 mi SE 12.7 mph - N/A   Partly Cloudy
4:52 PM 91.0 °F 95.6 °F 69.1 °F 48% 29.88 in 10.0 mi South 9.2 mph 20.7 mph N/A   Clear
5:52 PM 89.1 °F 93.7 °F 69.1 °F 52% 29.89 in 10.0 mi SSE 10.4 mph - N/A   Clear
6:52 PM 86.0 °F 90.1 °F 69.1 °F 57% 29.89 in 10.0 mi SSE 6.9 mph - N/A   Clear
7:52 PM 81.0 °F 84.4 °F 70.0 °F 69% 29.89 in 10.0 mi SSE 5.8 mph - N/A   Clear
8:52 PM 78.1 °F - 69.1 °F 74% 29.91 in 10.0 mi Calm Calm - N/A   Clear
9:52 PM 77.0 °F - 69.1 °F 76% 29.92 in 10.0 mi Calm Calm - N/A   Clear
10:52 PM 75.9 °F - 69.1 °F 79% 29.93 in 10.0 mi Calm Calm - N/A   Clear
11:52 PM 73.0 °F - 69.1 °F 87% 29.94 in 10.0 mi NNE 3.5 mph - N/A   Clear